SWA1376 KCLE-KLAS

Flight info

Callsign SWA1376
Flight time N/A
Altitude 32000
Route GTLKE5 YABRO DCT OXI DCT MAROC DCT COLIE DCT BACNN DCT KK60E DCT ATIJA DCT GLD DCT GGAPP CHOWW4
Aircraft B38M/M-SDE2E3GHIJ4J7P2RWZ/LB1D1

Departure

Time N/A
Airport Cleveland Hopkins International Airport (KCLE)

Arrival

Time 2026-05-03 20:56
Airport Harry Reid International Airport (KLAS)
Time Latitude Longitude Altitude Speed Heading
2026-05-03 20:15 37.78713 -110.98972 32052 ft 399 kts 255°
2026-05-03 20:15 37.77238 -111.05787 32053 ft 399 kts 255°
2026-05-03 20:16 37.75778 -111.12510 32055 ft 399 kts 255°
2026-05-03 20:16 37.74309 -111.19262 32054 ft 398 kts 254°
2026-05-03 20:17 37.72839 -111.26000 32056 ft 398 kts 254°
2026-05-03 20:17 37.71362 -111.32745 32056 ft 398 kts 254°
2026-05-03 20:18 37.69883 -111.39484 32090 ft 398 kts 254°
2026-05-03 20:18 37.68402 -111.46214 32098 ft 398 kts 254°
2026-05-03 20:19 37.66916 -111.52943 32118 ft 398 kts 254°
2026-05-03 20:19 37.65418 -111.59709 32126 ft 398 kts 254°
2026-05-03 20:20 37.63932 -111.66401 32130 ft 398 kts 254°
2026-05-03 20:20 37.62435 -111.73125 32142 ft 398 kts 254°
2026-05-03 20:21 37.60932 -111.79854 32157 ft 399 kts 254°
2026-05-03 20:21 37.59425 -111.86585 32163 ft 399 kts 253°
2026-05-03 20:22 37.57914 -111.93310 32167 ft 399 kts 253°
2026-05-03 20:22 37.56398 -112.00042 32174 ft 398 kts 253°
2026-05-03 20:23 37.54896 -112.06688 32176 ft 397 kts 253°
2026-05-03 20:23 37.53171 -112.13276 32168 ft 397 kts 243°
2026-05-03 20:24 37.50299 -112.19216 32168 ft 397 kts 239°
2026-05-03 20:24 37.47312 -112.25075 32162 ft 397 kts 238°
2026-05-03 20:25 37.44305 -112.30891 32157 ft 396 kts 238°
2026-05-03 20:25 37.41272 -112.36735 32147 ft 396 kts 238°
2026-05-03 20:26 37.38260 -112.42527 32127 ft 395 kts 238°
2026-05-03 20:26 37.35246 -112.48313 32113 ft 395 kts 238°
2026-05-03 20:27 37.32236 -112.54081 32106 ft 394 kts 238°
2026-05-03 20:27 37.29221 -112.59848 32079 ft 394 kts 238°
2026-05-03 20:28 37.26215 -112.65588 32071 ft 394 kts 238°
2026-05-03 20:28 37.23206 -112.71324 32071 ft 393 kts 238°
2026-05-03 20:29 37.20196 -112.77052 32067 ft 393 kts 238°
2026-05-03 20:29 37.17208 -112.82730 32066 ft 393 kts 238°
2026-05-03 20:30 37.14195 -112.88444 32067 ft 392 kts 238°
2026-05-03 20:30 37.11190 -112.94132 32064 ft 391 kts 238°
2026-05-03 20:31 37.08180 -112.99819 32059 ft 391 kts 238°
2026-05-03 20:31 37.05173 -113.05496 32051 ft 390 kts 238°
2026-05-03 20:32 37.02173 -113.11145 32050 ft 390 kts 238°
2026-05-03 20:32 36.99162 -113.16807 32045 ft 390 kts 238°
2026-05-03 20:33 36.96155 -113.22453 32032 ft 389 kts 238°
2026-05-03 20:33 36.93152 -113.28082 32020 ft 389 kts 238°
2026-05-03 20:34 36.90167 -113.33666 31995 ft 388 kts 238°
2026-05-03 20:34 36.87142 -113.39316 31981 ft 388 kts 238°
2026-05-03 20:35 36.84160 -113.44879 31971 ft 388 kts 238°
2026-05-03 20:35 36.82668 -113.47659 31781 ft 383 kts 237°
2026-05-03 20:35 36.81190 -113.50414 31322 ft 380 kts 237°
2026-05-03 20:35 36.79726 -113.53145 30690 ft 378 kts 237°
2026-05-03 20:36 36.78267 -113.55864 30087 ft 377 kts 237°
2026-05-03 20:36 36.76794 -113.58609 29532 ft 374 kts 236°
2026-05-03 20:36 36.75357 -113.61287 29011 ft 369 kts 236°
2026-05-03 20:36 36.73930 -113.63943 28460 ft 369 kts 236°
2026-05-03 20:37 36.72512 -113.66580 27906 ft 372 kts 236°
2026-05-03 20:37 36.71052 -113.69292 27349 ft 371 kts 236°
2026-05-03 20:37 36.69637 -113.71918 26817 ft 370 kts 236°
2026-05-03 20:37 36.68201 -113.74581 26285 ft 369 kts 236°
2026-05-03 20:38 36.66772 -113.77229 25758 ft 368 kts 235°
2026-05-03 20:38 36.65343 -113.79875 25232 ft 367 kts 235°
2026-05-03 20:38 36.63922 -113.82505 24707 ft 365 kts 235°
2026-05-03 20:38 36.62507 -113.85122 24184 ft 364 kts 235°
2026-05-03 20:39 36.61094 -113.87733 23659 ft 363 kts 234°
2026-05-03 20:39 36.59683 -113.90338 23137 ft 362 kts 234°
2026-05-03 20:39 36.58193 -113.92852 22564 ft 361 kts 231°
2026-05-03 20:39 36.56661 -113.95304 21997 ft 359 kts 231°
2026-05-03 20:40 36.55139 -113.97758 21471 ft 357 kts 231°
2026-05-03 20:40 36.53630 -114.00198 20948 ft 354 kts 231°
2026-05-03 20:40 36.52134 -114.02617 20416 ft 352 kts 231°
2026-05-03 20:40 36.50647 -114.05025 19878 ft 350 kts 231°
2026-05-03 20:41 36.49165 -114.07421 19339 ft 349 kts 231°
2026-05-03 20:41 36.47710 -114.09773 18808 ft 347 kts 231°
2026-05-03 20:41 36.46242 -114.12145 18274 ft 345 kts 231°
2026-05-03 20:41 36.44791 -114.14487 17746 ft 339 kts 231°
2026-05-03 20:42 36.43367 -114.16783 17277 ft 331 kts 231°
2026-05-03 20:42 36.41977 -114.19024 16826 ft 323 kts 230°
2026-05-03 20:42 36.40641 -114.21176 16363 ft 305 kts 230°
2026-05-03 20:42 36.39363 -114.23218 15934 ft 299 kts 230°
2026-05-03 20:43 36.38073 -114.25240 15533 ft 297 kts 229°
2026-05-03 20:43 36.36800 -114.27238 15170 ft 293 kts 229°
2026-05-03 20:43 36.35541 -114.29215 14816 ft 293 kts 229°
2026-05-03 20:43 36.34275 -114.31202 14461 ft 293 kts 229°
2026-05-03 20:44 36.33014 -114.33180 14099 ft 292 kts 229°
2026-05-03 20:44 36.32177 -114.34493 13855 ft 291 kts 229°
2026-05-03 20:44 36.30923 -114.36458 13483 ft 290 kts 229°
2026-05-03 20:44 36.29679 -114.38407 13112 ft 287 kts 229°
2026-05-03 20:45 36.28446 -114.40337 12744 ft 282 kts 229°
2026-05-03 20:45 36.26859 -114.42821 12271 ft 272 kts 228°
2026-05-03 20:45 36.26076 -114.44046 12042 ft 267 kts 228°
2026-05-03 20:45 36.24931 -114.45814 11686 ft 260 kts 227°
2026-05-03 20:46 36.23808 -114.47538 11340 ft 254 kts 227°
2026-05-03 20:46 36.22712 -114.49220 11036 ft 248 kts 227°
2026-05-03 20:46 36.21644 -114.50859 10735 ft 242 kts 227°
2026-05-03 20:46 36.20592 -114.52472 10442 ft 240 kts 227°
2026-05-03 20:47 36.19545 -114.54079 10145 ft 240 kts 227°
2026-05-03 20:47 36.18492 -114.55692 9846 ft 240 kts 227°
2026-05-03 20:47 36.17454 -114.57281 9520 ft 240 kts 227°
2026-05-03 20:47 36.16410 -114.58879 9198 ft 238 kts 227°
2026-05-03 20:48 36.15367 -114.60473 8930 ft 239 kts 227°
2026-05-03 20:48 36.14326 -114.62064 8785 ft 238 kts 227°
2026-05-03 20:48 36.13278 -114.63663 8645 ft 239 kts 227°
2026-05-03 20:48 36.12237 -114.65254 8490 ft 238 kts 227°
2026-05-03 20:49 36.11197 -114.66840 8355 ft 237 kts 227°
2026-05-03 20:49 36.10144 -114.68446 8217 ft 237 kts 227°
2026-05-03 20:49 36.09122 -114.70004 8077 ft 236 kts 227°
2026-05-03 20:49 36.08119 -114.71607 7941 ft 238 kts 233°
2026-05-03 20:50 36.07563 -114.73564 7670 ft 242 kts 253°
2026-05-03 20:50 36.07390 -114.75620 7554 ft 242 kts 263°
2026-05-03 20:50 36.07372 -114.77709 7473 ft 244 kts 266°
2026-05-03 20:50 36.07381 -114.79814 7279 ft 245 kts 266°
2026-05-03 20:51 36.07386 -114.81911 6974 ft 244 kts 266°
2026-05-03 20:51 36.07388 -114.84012 6648 ft 244 kts 266°
2026-05-03 20:51 36.07388 -114.85208 6466 ft 243 kts 266°
2026-05-03 20:51 36.07387 -114.87296 6136 ft 242 kts 266°
2026-05-03 20:52 36.07387 -114.89338 5972 ft 233 kts 266°
2026-05-03 20:52 36.07385 -114.91334 5637 ft 232 kts 266°
2026-05-03 20:52 36.07384 -114.93298 5275 ft 224 kts 266°
2026-05-03 20:52 36.07382 -114.95191 4928 ft 214 kts 266°
2026-05-03 20:53 36.07382 -114.96985 4615 ft 204 kts 266°
2026-05-03 20:53 36.07379 -114.98694 4339 ft 194 kts 266°
2026-05-03 20:53 36.07378 -115.00330 4119 ft 186 kts 266°
2026-05-03 20:53 36.07376 -115.01912 3881 ft 181 kts 266°
2026-05-03 20:54 36.07375 -115.03461 3638 ft 179 kts 266°
2026-05-03 20:54 36.07373 -115.06328 3193 ft 160 kts 268°
2026-05-03 20:54 36.07372 -115.07671 2995 ft 157 kts 268°
2026-05-03 20:55 36.07365 -115.09037 2799 ft 156 kts 269°
2026-05-03 20:55 36.07364 -115.10369 2570 ft 153 kts 270°
2026-05-03 20:55 36.07367 -115.11677 2377 ft 151 kts 271°
2026-05-03 20:55 36.07367 -115.12982 2209 ft 150 kts 272°
2026-05-03 20:56 36.07367 -115.14080 2193 ft 89 kts 268°
2026-05-03 20:56 36.07366 -115.14695 2192 ft 47 kts 274°
2026-05-03 20:56 36.07454 -115.15016 2192 ft 32 kts 301°
2026-05-03 20:56 36.07533 -115.15130 2192 ft 4 kts 328°
2026-05-03 20:57 36.07535 -115.15132 2192 ft 0 kts 328°
2026-05-03 20:58 36.07559 -115.15149 2192 ft 10 kts 332°
2026-05-03 20:58 36.07658 -115.15207 2192 ft 19 kts 335°
2026-05-03 20:58 36.07773 -115.15274 2192 ft 17 kts 335°
2026-05-03 20:58 36.07864 -115.15301 2192 ft 9 kts 44°
2026-05-03 20:59 36.07877 -115.15222 2192 ft 10 kts 91°
2026-05-03 20:59 36.07877 -115.15144 2192 ft 8 kts 84°
2026-05-03 20:59 36.07911 -115.15113 2192 ft 7 kts
2026-05-03 20:59 36.07960 -115.15112 2192 ft 9 kts
2026-05-03 21:00 36.08044 -115.15113 2192 ft 11 kts 355°
2026-05-03 21:00 36.08085 -115.15136 2192 ft 9 kts 332°
2026-05-03 21:00 36.08158 -115.15175 2192 ft 9 kts 335°
2026-05-03 21:00 36.08215 -115.15199 2192 ft 8 kts 350°
2026-05-03 21:01 36.08251 -115.15213 2192 ft 4 kts 334°
2026-05-03 21:01 36.08266 -115.15222 2192 ft 1 kts 334°
2026-05-03 21:01 36.08267 -115.15222 2192 ft 0 kts 334°